Regional Weather Roundup
Issued by NWS

Home | Current Version | Previous Version | Text Only | Print | Product List | Glossary On
Versions: 1 2 3 4 5 6 7 8 9 10 11 12 13 14 15 16 17 18 19 20 21 22 23 24 25 26 27 28 29 30 31 32 33 34 35 36 37 38 39 40 41 42 43 44 45 46 47 48 49 50
000
ASUS43 KLSX 270259
RWRMO

WEATHER SUMMARY FOR MISSOURI
NATIONAL WEATHER SERVICE SPRINGFIELD MO
1000 PM CDT THU MAR 26 2015

NOTE: "FAIR" INDICATES FEW OR NO CLOUDS BELOW 12,000 FEET WITH NO
       SIGNIFICANT WEATHER AND/OR OBSTRUCTIONS TO VISIBILITY.
       CURRENT SKY AND/OR WEATHER CONDITIONS ARE NOT AVAILABLE FOR
       CHILLICOTHE AND FARMINGTON.

MOZ001>031-035>038-043-044-053-054-270400-
...NORTHERN AND WESTERN MISSOURI...

CITY           SKY/WX    TMP DP  RH WIND       PRES   REMARKS
KANSAS CTY INT CLOUDY    43  31  62 N13       30.11R
KANSAS C DTWN  CLOUDY    48  28  46 N8        30.10S
LEE`S SUMMIT   CLOUDY    46  27  47 N8        30.09F
ST JOSEPH      CLOUDY    39  34  82 N15       30.16R
CHILLICOTHE      N/A     43  31  62 N6        30.14R
KIRKSVILLE     CLOUDY    41  27  57 N13       30.11R

$$
MOZ066>068-077>081-088>096-101>105-270400-
...SOUTHWEST MISSOURI...

CITY           SKY/WX    TMP DP  RH WIND       PRES   REMARKS
SPRINGFIELD    PTCLDY    36  29  75 SE6       30.05F
JOPLIN         MOCLDY    43  31  62 SW6       30.08S

$$
MOZ032>034-039>042-045>050-055>058-069>072-270400-
...CENTRAL MISSOURI...

CITY           SKY/WX    TMP DP  RH WIND       PRES   REMARKS
COLUMBIA       CLOUDY    43  28  55 W5        30.08R
JEFFERSON CITY MOCLDY    42  31  64 NW3       30.09R
ROLLA          CLEAR     37  28  70 MISG      30.06S
SEDALIA        CLOUDY    45  32  60 N5        30.10R
OSAGE BEACH    MOCLDY    39  28  65 N3        30.09R

$$
MOZ051-052-059>065-270400-
...EAST CENTRAL MISSOURI...

CITY           SKY/WX    TMP DP  RH WIND       PRES   REMARKS
ST LOUIS INTL  PTCLDY    43  27  53 CALM      30.07F
SPIRIT OF STL  CLEAR     38  30  73 CALM      30.07S
ST CHARLES     CLEAR     39  31  72 CALM      30.07S

$$
MOZ072>076-082>087-097>100-106>115-270400-
...SOUTH CENTRAL AND SOUTHEAST MISSOURI...

CITY           SKY/WX    TMP DP  RH WIND       PRES   REMARKS
CAPE GIRARDEAU CLEAR     39  35  86 CALM      30.06R
FARMINGTON     CLEAR     39  27  60 N6        30.09S
POPLAR BLUFF   CLEAR     42  35  76 CALM      30.05S
WEST PLAINS    CLEAR     40  26  57 MISG      30.07S

$$


USA.gov is the U.S. government's official web portal to all federal, state and local government web resources and services.